Location: Dumpton Point
(51.3500°N, 1.4433°E)
Time: 20:33:27
(UTC+00:00)

Vanguard 2 Rocket - Pass Details

Date: 02 October 2022
Orbit: 555 x 3321 km, 32.9° (Epoch: 05 December)

Event Time Altitude Azimuth Distance (km) Brightness Sun altitude
Rises 03:02:12 0° 253° (WSW) 4,571 - -26.9°
Reaches altitude 10° 03:09:06 10° 217° (SW) 2,802 - -25.9°
Maximum altitude 03:09:59 10° 209° (SSW) 2,685 - -25.8°
Drops below altitude 10° 03:10:50 10° 201° (SSW) 2,615 - -25.7°
Exits shadow 03:15:27 - 159° (SSE) 3,030 9.5 -25.1°
Sets 03:15:39 0° 158° (SSE) 3,077 9.6 -25.1°
